Change the Weather History Date:

Monday, October 22, 2012

  Actual Average Record
Temperature  
Mean Temperature 56 °F -  
Max Temperature 69 °F 60 °F 77 °F (2007)
Min Temperature 42 °F 44 °F 37 °F (2002)
Degree Days  
Heating Degree Days 10    
Growing Degree Days 6 (Base 50)    
Moisture  
Dew Point 43 °F    
Average Humidity 71    
Maximum Humidity 94    
Minimum Humidity 35    
Precipitation  
Precipitation 0.00 in - - ()
Sea Level Pressure  
Sea Level Pressure 30.15 in    
Wind  
Wind Speed 2 mph (West)    
Max Wind Speed 12 mph    
Max Gust Speed 17 mph    
Visibility 10 miles    
Events      
Averages and records for this station are not official NWS values.
T = Trace of Precipitation, MM = Missing Value Source: NWS Daily Summary

Daily Weather History Graph

Daily Weather History Graph

Search for Another Location

Airport or City:

Trip Planner

Search our weather history database for the weather conditions in past years. The results will help you decide how hot, cold, wet, or windy it might be!

Date:

Astronomy

Oct. 22, 2012 Rise Set
Actual Time 7:23 AM EDT 6:16 PM EDT
Civil Twilight 6:55 AM EDT 6:43 PM EDT
Nautical Twilight 6:24 AM EDT 7:14 PM EDT
Astronomical Twilight 5:53 AM EDT 7:45 PM EDT
Moon 2:20 PM EDT (10/22) 12:10 AM EDT (10/22)
Length of Visible Light 11h 47m
Length of Day
10h 53m
First Quarter, 56% of the Moon is Illuminated
Oct 22
First Quarter
Oct 29
Full
Nov 6
Last Quarter
Nov 13
New
Nov 20
First Quarter

Hourly Weather History & Observations

Time (EDT) Temp. Windchill Dew Point Humidity Pressure Visibility Wind Dir Wind Speed Gust Speed Precip Events Conditions
12:12 AM 50.0 °F - 41.0 °F 71% 30.14 in 10.0 mi Calm Calm - N/A   Clear
12:33 AM 48.2 °F - 41.0 °F 76% 30.14 in 10.0 mi Calm Calm - N/A   Clear
12:54 AM 46.4 °F - 41.0 °F 81% 30.14 in 10.0 mi Calm Calm - N/A   Clear
1:15 AM 48.2 °F - 41.0 °F 76% 30.14 in 10.0 mi Calm Calm - N/A   Clear
1:57 AM 46.4 °F - 41.0 °F 81% 30.14 in 10.0 mi Calm Calm - N/A   Clear
3:00 AM 44.6 °F - 42.8 °F 93% 30.15 in 10.0 mi Calm Calm - N/A   Clear
4:06 AM 44.6 °F - 41.0 °F 87% 30.15 in 10.0 mi Calm Calm - N/A   Clear
4:27 AM 44.6 °F - 41.0 °F 87% 30.15 in 10.0 mi Calm Calm - N/A   Clear
5:09 AM 44.6 °F - 41.0 °F 87% 30.15 in 10.0 mi Calm Calm - N/A   Clear
5:33 AM 42.8 °F - 41.0 °F 93% 30.16 in 10.0 mi Calm Calm - N/A   Clear
5:45 AM 44.6 °F - 41.0 °F 87% 30.16 in 10.0 mi Calm Calm - N/A   Clear
6:45 AM 44.6 °F 43.1 °F 41.0 °F 87% 30.18 in 10.0 mi WNW 3.5 mph - N/A   Clear
7:50 AM 44.6 °F - 41.0 °F 87% 30.19 in 10.0 mi Calm Calm - N/A   Clear
8:45 AM 48.2 °F - 44.6 °F 87% 30.21 in 6.0 mi West 3.5 mph - N/A   Haze
9:45 AM 57.2 °F - 44.6 °F 63% 30.21 in 7.0 mi West 5.8 mph - N/A   Clear
10:45 AM 62.6 °F - 42.8 °F 48% 30.20 in 10.0 mi West 9.2 mph - N/A   Clear
11:45 AM 64.4 °F - 44.6 °F 49% 30.19 in 10.0 mi NW 5.8 mph - N/A   Clear
12:45 PM 66.2 °F - 44.6 °F 46% 30.18 in 10.0 mi WNW 11.5 mph 17.3 mph N/A   Clear
1:45 PM 68.0 °F - 42.8 °F 40% 30.15 in 10.0 mi WNW 9.2 mph - N/A   Clear
2:50 PM 69.8 °F - 41.0 °F 35% 30.13 in 10.0 mi West 5.8 mph - N/A   Clear
3:45 PM 69.8 °F - 41.0 °F 35% 30.12 in 10.0 mi West 9.2 mph - N/A   Clear
4:45 PM 69.8 °F - 41.0 °F 35% 30.11 in 10.0 mi WSW 6.9 mph - N/A   Clear
5:45 PM 68.0 °F - 41.0 °F 37% 30.11 in 10.0 mi WSW 4.6 mph - N/A   Clear
6:45 PM 62.6 °F - 46.4 °F 55% 30.12 in 10.0 mi Calm Calm - N/A   Clear
7:45 PM 57.2 °F - 46.4 °F 67% 30.13 in 10.0 mi Calm Calm - N/A   Clear
8:45 PM 53.6 °F - 48.2 °F 82% 30.13 in 10.0 mi Calm Calm - N/A   Clear
9:45 PM 53.6 °F - 48.2 °F 82% 30.14 in 10.0 mi Calm Calm - N/A   Clear
10:12 PM 51.8 °F - 46.4 °F 82% 30.14 in 10.0 mi Calm Calm - N/A   Clear
10:57 PM 51.8 °F - 48.2 °F 88% 30.14 in 10.0 mi Calm Calm - N/A   Clear
11:18 PM 51.8 °F - 48.2 °F 88% 30.14 in 10.0 mi Calm Calm - N/A   Clear
11:39 PM 51.8 °F - 50.0 °F 94% 30.14 in 10.0 mi Calm Calm - N/A   Clear